EW4799 Weather Reports


time (UTC)temp
F
wind
direction
speed
knots
gust
knots
rain 1hr
in
rain 24hr
in
rain mn
in
humidity
%
barometer
mb
20260901030104 68 0 0.0 0.0 0.00 0.00 0.00 67 1009.0
20260901024611 69 0 0.0 0.0 0.00 0.00 0.00 64 1009.0
20260901023104 71 0 0.0 1.7 0.00 0.00 0.00 61 1008.9
20260901021604 71 0 0.0 0.0 0.00 0.00 0.00 60 1008.9
20260901020100 72 0 0.0 0.9 0.00 0.00 0.00 59 1009.0
20260901014606 73 0 0.0 0.0 0.00 0.00 0.00 57 1008.9
20260901013116 75 0 0.0 0.9 0.00 0.00 0.00 55 1008.9
20260901011559 75 0 0.0 2.6 0.00 0.00 0.00 53 1008.9
20260901010114 77 25 0.0 1.7 0.00 0.00 0.00 51 1008.9
20260901004610 78 0 0.0 1.7 0.00 0.00 0.00 49 1008.9
20260901003103 81 11 0.9 2.6 0.00 0.00 0.00 45 1009.0
20260901001601 81 20 0.0 3.5 0.00 0.00 0.00 45 1009.1
20260901000107 83 178 0.9 4.3 0.00 0.00 0.00 42 1009.1
20260831234633 83 169 0.9 4.3 0.00 0.00 0.00 42 1009.2
20260831233101 82 11 0.9 3.5 0.00 0.00 0.00 43 1009.3
20260831231604 81 162 0.9 3.5 0.00 0.00 0.00 44 1009.5
20260831230113 81 129 0.9 4.3 0.00 0.00 0.00 44 1009.6
20260831224559 82 0 0.0 3.5 0.00 0.00 0.00 42 1009.9
20260831223110 81 36 0.9 4.3 0.00 0.00 0.00 43 1010.0
20260831221558 80 167 0.9 3.5 0.00 0.00 0.00 45 1010.1
20260831220104 81 167 0.0 3.5 0.00 0.00 0.00 44 1010.2
20260831214623 79 182 0.0 3.5 0.00 0.00 0.00 45 1010.3
20260831213109 79 161 0.9 5.2 0.00 0.00 0.00 46 1010.7
20260831211605 79 163 0.9 4.3 0.00 0.00 0.00 47 1010.8
20260831210106 78 147 0.9 5.2 0.00 0.00 0.00 48 1010.9
20260831204609 77 166 0.9 4.3 0.00 0.00 0.00 49 1011.1
20260831203104 76 23 0.9 5.2 0.00 0.00 0.00 51 1011.2
20260831201620 75 159 0.0 2.6 0.00 0.00 0.00 53 1011.4
20260831194603 72 165 0.9 3.5 0.00 0.00 0.00 58 1011.7
20260831193131 71 160 0.0 5.2 0.00 0.00 0.00 59 1012.0
20260831191601 70 4 1.7 3.5 0.00 0.00 0.00 60 1012.2
20260831190058 70 0 0.0 3.5 0.00 0.00 0.00 62 1012.5
20260831184605 68 17 0.9 3.5 0.00 0.00 0.00 65 1012.8
20260831183104 67 17 0.0 4.3 0.00 0.00 0.00 65 1013.0
20260831181612 66 0 0.0 4.3 0.00 0.00 0.00 67 1013.2
20260831180110 65 0 0.9 2.6 0.00 0.00 0.00 68 1013.3
20260831174559 64 0 0.0 3.5 0.00 0.00 0.00 71 1013.5
20260831173103 63 0 0.0 1.7 0.00 0.00 0.00 73 1013.6
20260831171602 61 160 0.0 2.6 0.00 0.00 0.00 78 1013.7
20260831170100 60 20 0.0 1.7 0.00 0.00 0.00 79 1013.9
20260831164610 60 0 0.0 1.7 0.00 0.00 0.00 81 1014.0
20260831163102 59 25 0.0 1.7 0.00 0.00 0.00 83 1014.3
20260831161610 58 0 0.0 0.9 0.00 0.00 0.00 85 1014.5
20260831160108 57 0 0.0 1.7 0.00 0.00 0.00 86 1014.5
20260831154632 56 0 0.0 0.0 0.00 0.00 0.00 87 1014.7
20260831153109 55 0 0.0 0.0 0.00 0.00 0.00 86 1014.8
20260831151605 54 0 0.0 1.7 0.00 0.00 0.00 86 1014.9
20260831150108 54 0 0.0 0.9 0.00 0.00 0.00 85 1014.9
20260831144604 53 0 0.0 2.6 0.00 0.00 0.00 83 1014.7
20260831143109 53 0 0.0 0.0 0.00 0.00 0.00 83 1014.7
20260831141601 52 0 0.0 0.0 0.00 0.00 0.00 83 1014.7
20260831140059 52 0 0.0 0.0 0.00 0.00 0.00 83 1014.7
20260831134605 52 0 0.0 0.0 0.00 0.00 0.00 84 1014.7
20260831133106 52 0 0.0 0.0 0.00 0.00 0.00 84 1014.6
20260831131603 52 0 0.0 0.0 0.00 0.00 0.00 84 1014.7
20260831130109 52 0 0.0 0.0 0.00 0.00 0.00 85 1014.7
20260831124605 52 0 0.0 0.0 0.00 0.00 0.00 85 1014.9
20260831123102 53 0 0.0 0.0 0.00 0.00 0.00 85 1014.9
20260831121558 53 0 0.0 0.0 0.00 0.00 0.00 86 1015.1
20260831120110 53 0 0.0 0.0 0.00 0.00 0.00 86 1015.3
20260831114611 53 0 0.0 0.0 0.00 0.00 0.00 86 1015.4
20260831113101 53 0 0.0 0.0 0.00 0.00 0.00 86 1015.5
20260831111558 53 0 0.0 0.0 0.00 0.00 0.00 86 1015.6
20260831110059 54 0 0.0 0.0 0.00 0.00 0.00 86 1015.6
20260831104602 54 0 0.0 0.0 0.00 0.00 0.00 86 1015.7
20260831103102 54 0 0.0 0.0 0.00 0.00 0.00 86 1015.9
20260831101602 54 0 0.0 0.0 0.00 0.00 0.00 86 1015.9
20260831100338 54 0 0.0 0.0 0.00 0.00 0.00 86 1016.0
20260831094559 55 0 0.0 0.0 0.00 0.00 0.00 86 1016.3
20260831093124 55 0 0.0 0.0 0.00 0.00 0.00 86 1016.5
20260831091559 55 0 0.0 0.0 0.00 0.00 0.00 86 1016.6
20260831090134 55 0 0.0 0.0 0.00 0.00 0.00 85 1016.7
20260831084559 56 0 0.0 0.9 0.00 0.00 0.00 85 1016.7
20260831083107 56 0 0.0 0.0 0.00 0.00 0.00 84 1016.7
20260831081602 57 0 0.0 0.0 0.00 0.00 0.00 83 1016.8
20260831080128 57 0 0.0 0.0 0.00 0.00 0.00 83 1017.0
20260831074604 57 0 0.0 0.0 0.00 0.00 0.00 82 1017.1
20260831073102 57 0 0.0 0.0 0.00 0.00 0.00 82 1017.0
20260831071559 57 0 0.0 0.0 0.00 0.00 0.00 82 1017.2
20260831070100 57 0 0.0 0.0 0.00 0.00 0.00 82 1017.3
20260831064605 57 0 0.0 0.0 0.00 0.00 0.00 81 1017.5
20260831063114 58 0 0.0 0.0 0.00 0.00 0.00 80 1017.6
20260831061601 58 0 0.0 0.0 0.00 0.00 0.00 79 1017.7
20260831060106 58 0 0.0 0.0 0.00 0.00 0.00 79 1017.7
20260831054559 59 0 0.0 0.0 0.00 0.00 0.00 78 1017.8
20260831053133 59 0 0.0 0.0 0.00 0.00 0.00 77 1018.2
20260831051602 59 0 0.0 0.0 0.00 0.00 0.00 76 1018.3
20260831050110 60 15 0.0 0.0 0.00 0.00 0.00 75 1018.3
20260831044645 60 0 0.0 0.0 0.00 0.00 0.00 74 1018.4
20260831043105 61 0 0.0 0.0 0.00 0.00 0.00 72 1018.3
20260831041614 62 0 0.0 0.0 0.00 0.00 0.00 71 1018.3
20260831040104 63 0 0.0 0.0 0.00 0.00 0.00 69 1018.3
20260831034602 64 0 0.0 0.9 0.00 0.00 0.00 67 1018.3
20260831033109 65 0 0.0 3.5 0.00 0.00 0.00 64 1018.1
20260831031604 65 0 0.0 0.9 0.00 0.00 0.00 63 1018.1